Greenville/Spartanburg, SC

5:33 AM EDT on April 26, 2018 (GMT -0400)
Greenville-Spartanburg International

Weather History for KGSP - June, 2013

Change the Weather History Date:

Wednesday, June 26, 2013

  Actual Average Record
Temperature  
Mean Temperature 81 °F 79 °F  
Max Temperature 90 °F 89 °F 100 °F (1952)
Min Temperature 71 °F 68 °F 55 °F (1974)
Degree Days  
Heating Degree Days 0 0  
Month to date heating degree days 0 0  
Since 1 June heating degree days 0 0  
Since 1 July heating degree days 2966 3044  
Cooling Degree Days 16 14  
Month to date cooling degree days 288 295  
Year to date cooling degree days 450 496  
Since 1 June cooling degree days 288 295  
Growing Degree Days 30 (Base 50)    
Moisture  
Dew Point 70 °F    
Average Humidity 73    
Maximum Humidity 93    
Minimum Humidity 52    
Precipitation  
Precipitation T in 0.13 in 2.36 in (1974)
Month to date precipitation 9.33 3.27  
Year to date precipitation 32.49 22.70  
Snow  
Snow 0.00 in 0.00 in 0.00 in ()
Month to date snowfall 0.0 0.0  
Since 1 June snowfall 0.0 0.0  
Since 1 July snowfall 2.0 4.7  
Snow Depth 0.00 in    
Sea Level Pressure  
Sea Level Pressure 29.98 in    
Wind  
Wind Speed 7 mph (SW)    
Max Wind Speed 15 mph    
Max Gust Speed 18 mph    
Visibility 9 miles    
Events Thunderstorm    
T = Trace of Precipitation, MM = Missing Value Source: NWS Daily Summary

Daily Weather History Graph

Daily Weather History Graph

Search for Another Location

Airport or City:

Astronomy

Jun. 26, 2013 Rise Set
Actual Time 6:17 AM EDT 8:46 PM EDT
Civil Twilight 5:47 AM EDT 9:16 PM EDT
Nautical Twilight 5:10 AM EDT 9:52 PM EDT
Astronomical Twilight 4:30 AM EDT 10:33 PM EDT
Moon 11:19 PM EDT 9:58 AM EDT
Length of Visible Light 15h 28m
Length of Day
14h 29m
Waning Gibbous, 85% of the Moon is Illuminated
Jun 26
Waning Gibbous
Jun 30
Last Quarter
Jul 8
New
Jul 15
First Quarter
Jul 22
Full

Hourly Weather History & Observations

Time (EDT) Temp. Heat Index Dew Point Humidity Pressure Visibility Wind Dir Wind Speed Gust Speed Precip Events Conditions
12:53 AM 71.1 °F - 69.1 °F 93% 30.03 in 10.0 mi South 5.8 mph - N/A   Clear
1:53 AM 72.0 °F - 69.1 °F 91% 30.01 in 10.0 mi SSW 6.9 mph - N/A   Clear
2:53 AM 71.1 °F - 70.0 °F 96% 29.98 in 9.0 mi WSW 4.6 mph - N/A   Clear
3:53 AM 71.1 °F - 70.0 °F 96% 29.97 in 8.0 mi SW 6.9 mph - N/A   Clear
4:49 AM 71.6 °F - 69.8 °F 94% 30.02 in 7.0 mi SSW 8.1 mph - N/A   Partly Cloudy
4:53 AM 71.1 °F - 70.0 °F 96% 29.99 in 7.0 mi SW 8.1 mph - N/A   Partly Cloudy
5:06 AM 71.6 °F - 69.8 °F 94% 30.02 in 6.0 mi SW 8.1 mph - N/A   Mostly Cloudy
5:53 AM 71.1 °F - 70.0 °F 96% 30.01 in 6.0 mi WSW 6.9 mph - N/A   Mostly Cloudy
6:53 AM 72.0 °F - 70.0 °F 93% 30.03 in 7.0 mi SW 5.8 mph - 0.00 in   Overcast
7:53 AM 73.0 °F - 71.1 °F 93% 30.03 in 8.0 mi Variable 4.6 mph - N/A   Mostly Cloudy
8:53 AM 75.0 °F - 71.1 °F 87% 30.03 in 8.0 mi WSW 9.2 mph - N/A   Mostly Cloudy
9:13 AM 77.0 °F - 71.6 °F 83% 30.07 in 9.0 mi West 6.9 mph - N/A   Scattered Clouds
9:53 AM 78.1 °F - 71.1 °F 79% 30.02 in 10.0 mi Variable 3.5 mph - N/A   Scattered Clouds
10:53 AM 82.0 °F 85.9 °F 70.0 °F 67% 30.01 in 10.0 mi West 6.9 mph - N/A   Clear
11:53 AM 86.0 °F 90.7 °F 70.0 °F 59% 30.00 in 10.0 mi West 9.2 mph - N/A   Clear
12:53 PM 86.0 °F 90.1 °F 69.1 °F 57% 29.99 in 10.0 mi SW 8.1 mph - N/A   Clear
1:53 PM 89.1 °F 94.1 °F 70.0 °F 53% 29.97 in 10.0 mi WSW 8.1 mph - N/A   Mostly Cloudy
2:53 PM 84.9 °F 90.1 °F 71.1 °F 63% 29.97 in 9.0 mi West 10.4 mph - N/A Thunderstorm Scattered Clouds
3:19 PM 80.6 °F 83.9 °F 69.8 °F 70% 29.99 in 8.0 mi WSW 8.1 mph - N/A   Clear
3:53 PM 81.0 °F 84.9 °F 71.1 °F 72% 29.94 in 10.0 mi Calm Calm - N/A   Clear
4:53 PM 84.9 °F 90.1 °F 71.1 °F 63% 29.93 in 10.0 mi SW 9.2 mph - N/A   Clear
5:53 PM 82.9 °F 88.0 °F 72.0 °F 69% 29.91 in 10.0 mi SW 6.9 mph - N/A   Clear
6:53 PM 82.0 °F 86.3 °F 71.1 °F 69% 29.91 in 10.0 mi WSW 8.1 mph 17.3 mph N/A   Clear
7:53 PM 81.0 °F 84.9 °F 71.1 °F 72% 29.92 in 10.0 mi WSW 5.8 mph - N/A   Partly Cloudy
8:53 PM 79.0 °F - 69.1 °F 72% 29.91 in 10.0 mi SW 10.4 mph - N/A   Clear
9:53 PM 78.1 °F - 70.0 °F 76% 29.92 in 10.0 mi South 8.1 mph - N/A   Clear
10:53 PM 77.0 °F - 70.0 °F 79% 29.92 in 10.0 mi SW 5.8 mph - N/A   Clear
11:53 PM 75.0 °F - 70.0 °F 84% 29.94 in 10.0 mi WSW 3.5 mph - N/A   Clear